Regional Weather Roundup
Issued by NWS

Home | Current Version | Previous Version | Graphics & Text | Print | Product List | Glossary Off
Versions: 1 2 3 4 5 6 7 8 9 10 11 12 13 14 15 16 17 18 19 20 21 22 23 24 25 26 27 28 29 30 31 32 33 34 35 36 37 38 39 40 41 42 43 44 45 46 47 48 49 50

000
ASUS43 KLSX 251910
RWRMO

WEATHER SUMMARY FOR MISSOURI
NATIONAL WEATHER SERVICE SPRINGFIELD MO
200 PM CDT SUN JUN 25 2017

NOTE: "FAIR" INDICATES FEW OR NO CLOUDS BELOW 12,000 FEET WITH NO
       SIGNIFICANT WEATHER AND/OR OBSTRUCTIONS TO VISIBILITY.
       CURRENT SKY AND/OR WEATHER CONDITIONS ARE NOT AVAILABLE FOR
       CHILLICOTHE AND FARMINGTON.

MOZ001>031-035>038-043-044-053-054-252000-
...NORTHERN AND WESTERN MISSOURI...

CITY           SKY/WX    TMP DP  RH WIND       PRES   REMARKS
KANSAS CTY INT PTSUNNY   73  47  39 NW10      30.29S
KANSAS C DTWN  SUNNY     76  45  33 N7        30.27S
LEE`S SUMMIT   SUNNY     79  47  32 NW10      30.28S
ST JOSEPH      CLOUDY    73  47  39 VRB3      30.29S
CHILLICOTHE      N/A     75  46  35 VRB7G20   30.27F
KIRKSVILLE     MOSUNNY   73  47  39 NW16G25   30.25F

$$
MOZ066>068-077>081-088>096-101>105-252000-
...SOUTHWEST MISSOURI...

CITY           SKY/WX    TMP DP  RH WIND       PRES   REMARKS
SPRINGFIELD    SUNNY     80  57  45 NW6       30.27F
JOPLIN         SUNNY     84  55  36 VRB6      30.27F
BRANSON        MOSUNNY   81  48  32 SW5       30.28F

$$
MOZ032>034-039>042-045>050-055>058-069>072-252000-
...CENTRAL MISSOURI...

CITY           SKY/WX    TMP DP  RH WIND       PRES   REMARKS
COLUMBIA       SUNNY     79  49  34 W15       30.24F
JEFFERSON CITY SUNNY     80  46  30 NW12G23   30.23F
ROLLA          SUNNY     80  53  39 W10G17    30.24F
SEDALIA        SUNNY     79  52  38 VRB3      30.27F
WHITEMAN AFB   MOSUNNY   79  47  32 N8        30.25F
WARRENSBURG    SUNNY     77  45  31 NW8       30.26F
OSAGE BEACH    SUNNY     79  51  37 VRB6      30.26F

$$
MOZ051-052-059>065-252000-
...EAST CENTRAL MISSOURI...

CITY           SKY/WX    TMP DP  RH WIND       PRES   REMARKS
ST LOUIS INTL  MOSUNNY   83  47  28 NW15G22   30.20F
SPIRIT OF STL  MOSUNNY   82  50  32 NW13G21   30.19F
ST CHARLES     SUNNY     81  46  29 W17       30.19F

$$
MOZ072>076-082>087-097>100-106>115-252000-
...SOUTH CENTRAL AND SOUTHEAST MISSOURI...

CITY           SKY/WX    TMP DP  RH WIND       PRES   REMARKS
CAPE GIRARDEAU SUNNY     83  52  34 W15       30.19F
FARMINGTON     MOSUNNY   82  49  31 W12G22    30.23F
POPLAR BLUFF   SUNNY     84  52  33 CALM      30.21F
WEST PLAINS    SUNNY     84  46  26 CALM      30.26F

$$




USA.gov is the U.S. government's official web portal to all federal, state and local government web resources and services.